Haines, AK

6:08 PM AKDT on March 26, 2017 (GMT -0800)
Haines

Weather History for PAHN - March, 2014

Change the Weather History Date:

Thursday, March 20, 2014

  Actual Average Record
Temperature  
Mean Temperature 34 °F -  
Max Temperature 39 °F 36 °F 57 °F (1981)
Min Temperature 30 °F 26 °F 12 °F (2007)
Degree Days  
Heating Degree Days 30    
Moisture  
Dew Point 17 °F    
Average Humidity 50    
Maximum Humidity 61    
Minimum Humidity 38    
Precipitation  
Precipitation 0.00 in - - ()
Sea Level Pressure  
Sea Level Pressure 30.33 in    
Wind  
Wind Speed 11 mph (NW)    
Max Wind Speed 16 mph    
Max Gust Speed -    
Visibility 10 miles    
Events      
Averages and records for this station are not official NWS values.
T = Trace of Precipitation, MM = Missing Value Source: NWS Daily Summary

Daily Weather History Graph

Daily Weather History Graph

Search for Another Location

Airport or City:

Trip Planner

Search our weather history database for the weather conditions in past years. The results will help you decide how hot, cold, wet, or windy it might be!

Date:

Astronomy

Mar. 20, 2014 Rise Set
Actual Time 7:03 AM AKDT 7:17 PM AKDT
Civil Twilight 6:22 AM AKDT 7:57 PM AKDT
Nautical Twilight 5:33 AM AKDT 8:46 PM AKDT
Astronomical Twilight 4:41 AM AKDT 9:39 PM AKDT
Moon No Moon Rise 8:18 AM AKDT (3/20)
Length of Visible Light 13h 35m
Length of Day
12h 13m
Waning Gibbous, 83% of the Moon is Illuminated
Mar 20
Waning Gibbous
Mar 23
Last Quarter
Mar 30
New
Apr 7
First Quarter
Apr 14
Full

Hourly Weather History & Observations

Time (AKDT) Temp. Windchill Dew Point Humidity Pressure Visibility Wind Dir Wind Speed Gust Speed Precip Events Conditions
12:54 AM 34.0 °F 26.0 °F 21.0 °F 59% 30.19 in 10.0 mi NW 10.4 mph - N/A   Mostly Cloudy
1:54 AM 34.0 °F 25.5 °F 19.9 °F 56% 30.21 in 10.0 mi NW 11.5 mph - N/A   Overcast
2:54 AM 34.0 °F 24.2 °F 19.0 °F 54% 30.22 in 10.0 mi NW 15.0 mph - N/A   Mostly Cloudy
3:54 AM 33.1 °F 23.9 °F 19.0 °F 56% 30.25 in 10.0 mi NW 12.7 mph - N/A   Mostly Cloudy
4:54 AM 32.0 °F 22.5 °F 19.0 °F 59% 30.26 in 10.0 mi NW 12.7 mph - N/A   Scattered Clouds
5:54 AM 30.9 °F 21.7 °F 19.0 °F 61% 30.28 in 10.0 mi NW 11.5 mph - N/A   Clear
6:54 AM 30.9 °F 21.7 °F 18.0 °F 59% 30.29 in 10.0 mi NW 11.5 mph - N/A   Clear
7:54 AM 30.9 °F 21.7 °F 18.0 °F 59% 30.31 in 10.0 mi NNW 11.5 mph - N/A   Clear
8:54 AM 32.0 °F 23.0 °F 16.0 °F 52% 30.32 in 10.0 mi NW 11.5 mph - N/A   Clear
9:54 AM 33.1 °F 22.6 °F 17.1 °F 52% 30.33 in 10.0 mi WNW 16.1 mph - N/A   Clear
10:54 AM 35.1 °F 27.4 °F 16.0 °F 46% 30.35 in 10.0 mi NW 10.4 mph - N/A   Clear
11:54 AM 36.0 °F 26.7 °F 17.1 °F 46% 30.35 in 10.0 mi West 15.0 mph - N/A   Clear
12:54 PM 37.0 °F 29.8 °F 18.0 °F 46% 30.36 in 10.0 mi West 10.4 mph - N/A   Clear
1:54 PM 39.0 °F 31.4 °F 17.1 °F 41% 30.36 in 10.0 mi WNW 12.7 mph - N/A   Clear
2:54 PM 39.0 °F 31.4 °F 16.0 °F 39% 30.36 in 10.0 mi WNW 12.7 mph - N/A   Clear
3:54 PM 39.9 °F 34.5 °F 17.1 °F 40% 30.36 in 10.0 mi WNW 8.1 mph - N/A   Clear
4:54 PM 39.9 °F 33.4 °F 16.0 °F 38% 30.36 in 10.0 mi NW 10.4 mph - N/A   Clear
5:54 PM 37.9 °F 30.5 °F 15.1 °F 39% 30.36 in 10.0 mi WNW 11.5 mph - N/A   Clear
6:54 PM 36.0 °F 30.3 °F 16.0 °F 44% 30.38 in 10.0 mi NW 6.9 mph - N/A   Clear
7:54 PM 35.1 °F 28.6 °F 15.1 °F 44% 30.38 in 10.0 mi NW 8.1 mph - N/A   Clear
8:54 PM 34.0 °F 26.6 °F 16.0 °F 48% 30.40 in 10.0 mi NW 9.2 mph - N/A   Clear
9:54 PM 33.1 °F 24.9 °F 15.1 °F 48% 30.41 in 10.0 mi NW 10.4 mph - N/A   Clear
10:54 PM 32.0 °F 24.2 °F 15.1 °F 50% 30.41 in 10.0 mi NW 9.2 mph - N/A   Clear
11:54 PM 30.9 °F 22.2 °F 16.0 °F 54% 30.42 in 10.0 mi WNW 10.4 mph - N/A   Clear